Theta_e
318 317 316 316 316 316 316 316 316 316 317 317 317 318 318 318 319 319 319 319 319 319 319 319 319 318 319 318 318 318 318 315 313 310 312 313 321 332 342 339 336 345 365 356 352 347 342 343 341 344 341 338 337 335 341 340 342 337 327 323 319 323 322 325 322 320 322 319 329 331 333 332 329 334 336 340 337 338 337 336 339 342 341 343 345 346 346 347
318 317 317 316 316 316 316 316 316 316 317 317 317 317 318 318 318 319 319 319 319 319 318 318 318 319 318 318 318 319 317 315 311 310 310 320 334 339 350 347 340 361 360 351 346 342 340 338 340 340 337 332 340 333 340 334 343 331 328 326 321 326 327 331 328 328 324 324 331 332 334 333 332 334 337 332 332 334 333 334 337 337 340 343 345 345 344 344
317 317 316 316 316 316 316 316 316 316 316 317 317 317 318 318 318 318 318 318 318 318 318 318 318 318 318 318 318 319 317 312 312 309 315 338 337 339 347 353 343 366 347 347 346 343 340 339 340 338 335 333 334 330 335 334 339 336 330 323 325 331 330 330 331 330 332 330 329 331 333 333 335 336 338 331 332 333 331 331 335 335 336 339 341 343 343 343
317 316 316 316 316 316 316 316 316 317 316 317 317 317 317 318 318 318 317 318 318 318 318 317 317 318 317 318 319 318 314 314 305 310 314 342 357 344 344 351 352 361 347 350 349 345 345 344 340 338 333 332 333 336 329 334 333 336 331 325 328 331 330 332 332 332 328 329 330 332 333 332 335 337 335 333 330 331 333 336 335 335 337 339 340 341 342 341
316 316 316 316 316 316 316 316 316 316 316 316 317 317 317 317 317 317 318 317 318 317 317 317 317 317 317 318 318 319 311 303 306 309 318 354 357 355 345 353 362 351 347 350 349 347 345 340 338 335 331 327 333 334 330 334 337 336 331 334 332 332 328 332 335 334 328 332 333 333 330 331 338 337 334 334 328 329 333 337 339 340 340 339 339 340 341 340
316 316 316 315 315 316 316 316 316 316 316 316 316 317 317 317 317 317 317 316 317 317 317 317 317 317 317 318 318 315 303 297 308 315 350 357 355 356 346 347 365 347 349 346 342 342 341 339 336 330 328 329 329 327 333 333 339 326 332 335 336 336 332 336 335 332 331 331 331 331 334 336 334 333 336 335 331 334 337 340 340 343 343 343 342 341 340 339
316 315 315 315 315 315 315 315 315 315 315 316 316 316 317 317 316 316 316 316 316 317 317 317 318 317 317 317 314 315 306 304 312 319 338 358 359 352 348 358 358 345 345 341 340 338 339 337 334 329 327 328 331 330 333 334 338 332 327 333 333 336 333 336 335 334 331 329 330 334 337 332 333 329 336 334 336 336 339 341 341 344 345 344 341 341 340 340
315 315 315 315 315 315 315 315 315 315 316 316 316 316 316 316 316 315 315 316 316 317 318 317 317 317 317 313 311 303 305 304 312 313 328 359 353 347 351 353 343 343 339 337 338 335 337 335 330 334 329 326 330 331 333 332 334 330 328 333 333 333 332 333 332 331 330 329 331 335 332 331 334 333 335 333 337 337 338 341 343 344 344 343 342 340 341 341
315 315 315 315 315 315 315 315 315 316 316 316 316 315 315 316 315 316 316 317 317 317 317 318 317 317 318 316 305 297 298 309 311 317 351 347 346 348 346 338 340 338 336 338 339 337 335 333 332 334 325 328 331 330 333 329 325 331 331 334 332 331 331 331 330 330 329 328 329 330 330 333 335 336 332 335 337 338 340 341 342 343 342 342 341 341 341 341
315 315 314 314 314 314 314 315 315 315 316 316 316 315 315 315 315 316 316 317 317 317 316 317 317 317 314 312 310 296 306 309 319 328 344 347 350 344 337 336 336 334 333 336 337 337 332 333 332 336 335 333 332 328 333 331 325 330 330 331 329 330 330 331 328 329 330 328 328 325 327 330 336 332 326 336 338 339 339 340 342 341 341 341 341 342 342 341
314 314 314 314 314 314 314 315 315 315 315 315 315 315 315 315 315 315 316 317 317 317 317 318 319 316 310 314 302 298 310 318 340 340 344 347 346 337 333 333 333 331 333 334 333 337 336 337 338 336 331 327 332 329 329 329 332 329 328 327 325 324 324 324 325 324 326 323 327 327 324 330 333 332 328 335 338 339 338 339 340 341 341 341 342 342 343 343
314 313 313 313 313 313 314 314 314 315 315 315 314 314 315 315 314 315 316 318 319 319 318 318 319 316 315 311 303 302 312 330 335 340 342 343 340 335 333 334 331 330 331 329 333 336 336 339 339 333 319 328 318 322 323 330 328 326 324 316 317 318 316 317 316 318 322 319 326 328 325 324 327 326 332 335 338 338 338 338 339 340 341 341 341 341 342 342
313 313 313 313 313 313 314 314 315 315 314 314 314 314 314 314 314 315 319 321 320 318 318 319 319 316 313 299 306 313 312 316 313 314 330 330 334 331 334 334 330 331 332 330 331 336 335 340 338 331 327 322 321 312 320 322 323 321 318 316 314 314 314 319 319 317 318 320 325 327 311 318 324 329 333 337 337 337 337 337 338 339 340 341 341 341 341 343
313 313 313 313 313 313 314 314 314 314 314 313 314 313 313 313 314 318 321 320 318 316 319 320 317 314 311 299 305 308 313 314 312 311 315 315 314 320 332 333 331 326 325 323 325 333 329 339 337 333 322 320 317 322 318 316 315 313 316 315 310 309 311 312 315 319 316 321 325 326 310 313 324 329 333 337 337 336 335 336 337 338 339 339 340 340 341 342
312 313 313 312 313 313 314 314 314 313 313 313 312 312 312 311 315 321 318 318 318 319 320 321 317 312 301 302 310 313 326 314 310 310 313 311 310 319 327 331 329 326 322 321 323 326 322 332 330 322 318 318 318 315 312 313 312 313 311 309 310 308 313 312 314 316 313 317 326 323 312 313 320 327 334 336 337 336 334 336 337 337 338 338 340 340 340 342
312 312 312 312 312 313 312 313 313 313 313 312 311 311 312 314 319 320 319 319 321 321 319 314 314 313 307 301 308 330 317 308 308 312 316 314 313 312 327 329 328 324 323 321 323 325 322 327 323 321 318 315 314 310 307 305 305 308 308 309 308 307 308 311 310 312 314 316 322 320 311 315 315 324 334 337 336 336 335 336 337 337 338 338 339 340 340 341
312 312 312 312 312 312 313 312 313 312 311 311 310 311 312 315 320 322 322 322 321 320 318 307 315 318 298 308 314 307 309 315 319 315 313 315 314 322 327 326 323 321 322 320 321 322 320 318 315 315 314 310 310 308 302 299 299 303 308 308 310 309 310 309 312 313 315 315 315 321 315 315 318 322 334 335 336 335 334 335 336 337 338 338 339 339 340 341
312 312 312 312 313 313 313 312 312 312 310 309 310 310 310 316 321 322 321 320 320 319 320 320 314 308 303 312 303 306 312 314 317 319 314 315 318 326 325 321 322 320 319 316 317 315 316 312 313 306 308 307 306 304 298 295 298 299 303 305 307 307 306 307 307 309 310 314 311 315 316 315 318 324 332 334 335 335 334 335 336 336 337 338 338 339 340 341
312 312 312 312 312 312 312 312 312 310 309 309 311 312 313 315 317 318 316 318 308 305 302 307 306 300 301 302 309 311 311 315 319 319 315 313 316 323 321 322 322 316 312 312 311 312 313 311 310 306 301 303 303 303 300 303 303 302 305 307 309 308 310 309 310 310 309 308 308 310 309 312 315 324 329 334 335 334 334 336 336 337 337 338 338 339 339 340
312 311 312 312 312 312 312 312 311 309 308 307 306 307 309 301 302 303 311 310 301 304 306 308 312 312 309 311 310 314 316 316 311 315 316 315 313 315 316 319 317 316 311 306 309 310 312 304 302 302 303 305 305 305 304 306 307 308 308 308 308 309 310 309 307 309 311 308 309 308 309 310 311 318 326 332 335 334 334 334 335 336 336 336 338 338 339 341
312 312 312 312 312 311 312 311 310 309 307 308 305 303 296 295 294 293 296 298 302 302 301 303 307 310 310 310 311 311 307 309 314 314 317 319 312 311 308 313 310 307 309 310 309 312 310 303 303 306 307 307 306 306 306 305 308 307 307 306 306 306 306 309 308 309 310 308 309 311 310 311 312 315 324 331 333 331 332 333 334 335 336 337 338 338 339 341
312 312 312 311 312 311 311 310 309 308 307 307 306 300 300 300 302 304 299 295 301 303 303 302 305 304 309 310 312 311 310 306 308 310 313 314 309 307 306 308 307 304 309 309 309 306 304 301 305 308 309 309 308 306 306 304 303 305 304 306 306 308 310 311 311 311 310 308 309 309 307 308 310 313 324 330 331 333 334 334 335 336 336 336 337 339 340 341
311 311 312 311 311 311 310 309 308 306 307 304 302 302 300 305 308 308 304 298 295 302 301 302 300 301 302 307 308 311 303 302 302 308 310 314 306 308 306 304 304 306 307 308 304 304 301 304 308 310 309 308 307 307 306 304 304 302 302 301 301 306 305 306 305 306 307 307 307 308 306 308 314 323 322 330 331 333 335 336 336 337 337 337 337 339 339 340
311 311 311 311 310 310 309 307 306 305 305 303 302 301 305 307 308 307 301 295 295 300 302 304 303 303 303 302 308 307 303 304 305 305 314 313 307 310 306 305 303 304 304 307 306 305 304 304 312 310 309 308 306 306 305 304 302 304 303 302 301 303 304 306 307 306 307 308 307 307 307 308 312 313 322 329 332 333 334 335 336 338 339 340 340 340 341 340
312 311 311 310 310 309 307 306 303 302 305 303 303 305 307 308 308 307 300 298 298 298 305 304 305 304 306 313 310 305 306 306 306 310 315 314 309 307 306 308 305 301 304 307 307 306 306 308 310 309 308 308 307 304 305 305 301 303 305 304 303 305 305 305 305 306 306 306 309 307 302 303 315 317 319 328 329 330 333 333 333 335 337 338 338 338 341 341
311 311 311 310 310 308 306 301 301 303 303 301 303 306 307 308 308 308 301 293 290 299 301 298 306 302 311 303 308 307 306 301 308 309 315 315 316 312 307 304 306 301 303 305 305 306 307 307 308 307 307 307 307 305 306 306 302 301 303 307 306 306 306 306 305 305 303 301 307 309 302 300 312 311 317 324 327 328 331 331 332 334 335 336 337 338 339 340
311 311 310 310 309 307 302 297 303 304 299 300 306 307 307 307 310 306 296 292 290 301 299 300 301 303 308 305 306 308 297 301 309 310 312 317 311 316 306 304 304 306 306 307 303 301 306 306 306 307 306 306 305 304 306 306 303 301 308 308 307 307 306 306 307 307 306 310 309 307 307 301 301 308 316 322 325 327 329 330 332 332 335 335 336 337 339 340
311 311 310 309 308 307 303 304 303 300 299 303 307 307 307 308 309 305 295 287 289 305 299 299 303 309 305 306 308 304 302 305 302 305 311 316 316 310 309 304 302 303 305 304 295 305 306 304 305 304 305 304 304 306 307 308 304 304 308 308 307 307 307 307 307 307 308 304 301 305 306 301 300 309 316 322 319 324 326 329 331 332 334 335 336 337 339 340
310 310 310 309 307 306 308 304 302 299 304 306 307 307 307 309 305 298 291 285 302 299 309 299 308 304 303 305 303 305 303 303 298 305 310 315 316 311 305 307 306 305 306 304 300 303 307 307 307 307 305 302 307 308 308 308 304 306 307 310 309 309 308 308 307 305 304 300 297 303 304 299 300 306 309 321 316 318 323 328 331 333 334 335 335 337 338 340
310 310 309 308 306 306 305 304 302 306 307 307 307 307 308 306 301 291 287 282 304 295 301 302 301 297 302 299 299 303 301 302 302 305 308 308 311 311 309 312 306 304 303 306 304 305 306 311 312 308 305 307 308 309 308 308 309 308 308 306 305 305 305 305 305 304 301 295 298 303 303 302 296 304 306 312 315 319 322 328 331 334 335 335 336 337 337 338
310 308 308 308 303 304 303 301 302 306 307 308 307 307 306 300 293 289 283 292 298 299 302 300 298 302 298 297 295 300 300 301 301 305 303 308 307 308 307 305 308 304 303 302 301 304 304 307 307 308 311 310 309 305 308 310 309 307 305 303 303 303 304 303 301 303 296 294 302 304 303 303 295 301 308 314 321 322 322 322 327 330 333 334 336 336 338 339
308 307 307 306 306 308 301 298 304 307 308 307 307 306 299 289 291 285 287 302 290 296 295 296 299 299 299 299 297 297 298 299 301 303 302 303 303 302 303 301 302 296 296 297 297 303 301 303 306 306 312 309 306 304 304 306 307 306 304 303 297 296 296 292 297 292 293 293 299 302 303 299 298 306 309 314 316 321 324 321 325 329 331 334 335 337 338 339
306 306 305 307 307 304 305 307 309 308 308 306 306 304 293 287 282 289 290 295 290 297 296 300 298 298 298 297 296 298 299 297 301 302 304 304 303 303 305 306 305 303 295 299 298 297 299 304 304 305 307 310 308 301 300 299 303 303 301 300 295 292 290 287 292 295 294 297 300 300 304 297 304 306 310 309 317 320 324 327 327 329 332 334 336 337 337 338
305 305 305 306 306 306 307 310 309 308 304 306 303 296 292 283 284 300 292 294 293 299 299 297 298 299 298 296 296 299 296 298 298 300 302 301 302 300 302 305 305 302 302 300 297 297 293 294 300 303 301 309 307 306 304 303 302 303 305 302 298 296 292 288 291 289 290 294 297 302 297 296 297 301 312 312 315 321 323 326 329 330 333 336 336 337 337 338
305 305 305 305 305 306 307 308 309 305 303 303 297 292 284 284 289 288 291 293 296 297 295 299 296 295 296 295 298 299 299 296 299 297 299 299 298 300 300 302 304 305 303 297 299 299 297 298 303 306 307 308 305 308 309 305 303 305 305 305 300 298 303 293 296 294 294 294 294 297 296 304 302 313 315 317 316 318 322 324 327 328 330 332 333 334 335 336
304 304 305 302 303 306 307 305 305 305 303 299 292 287 284 288 286 294 292 298 297 294 295 297 296 294 294 296 297 297 301 297 299 298 297 299 300 300 301 302 302 304 301 299 300 295 298 296 302 305 308 307 307 309 307 308 296 302 303 298 301 307 303 299 298 299 298 296 294 303 300 303 310 309 311 314 314 314 316 320 321 323 326 330 330 332 334 335
302 303 300 302 303 306 306 305 305 303 303 294 288 284 290 291 295 295 298 295 296 297 295 289 293 292 291 292 294 295 297 299 298 297 294 299 296 296 297 299 302 302 301 302 300 303 297 298 302 303 300 307 310 309 308 309 309 303 298 302 307 309 306 301 293 299 294 291 295 297 296 298 299 296 315 311 313 313 314 316 318 322 324 325 326 330 332 333
300 300 301 302 304 305 306 306 304 303 301 293 286 288 295 291 298 297 299 296 296 297 294 291 292 295 291 292 292 293 296 295 296 298 294 297 293 298 296 296 301 300 301 304 301 301 302 296 300 304 304 306 308 309 305 309 310 305 303 310 301 296 295 304 298 290 290 290 293 297 298 298 300 300 309 310 311 313 316 317 317 319 321 322 324 327 331 333
301 299 294 299 304 305 305 307 304 303 297 289 288 285 292 294 298 297 298 296 298 296 292 293 291 294 294 292 293 295 296 293 296 295 294 294 292 297 295 296 298 301 302 303 301 303 302 297 298 303 304 304 306 306 298 301 306 305 308 305 309 304 300 297 298 300 298 292 292 293 295 294 304 303 306 308 314 316 316 317 317 319 321 323 324 324 327 330
297 294 292 301 304 305 306 306 305 301 295 285 290 291 295 291 296 298 299 296 294 295 294 294 296 292 294 293 294 293 296 295 295 295 295 295 293 297 295 298 295 299 303 304 302 307 300 304 295 299 303 304 299 303 301 303 300 301 301 301 301 302 305 304 302 299 296 295 294 293 292 299 306 309 308 308 313 318 318 319 321 321 321 323 325 326 327 329
299 294 293 304 304 305 305 302 295 291 291 292 292 291 292 291 295 296 298 298 295 299 296 295 295 292 293 292 293 296 294 295 295 294 295 294 294 292 298 296 298 299 303 305 305 305 301 299 296 298 298 298 301 305 306 306 306 303 302 300 301 300 297 295 294 301 300 296 293 293 292 301 305 311 312 311 313 316 322 321 321 322 322 325 325 326 329 328
294 287 291 302 304 305 299 291 291 294 291 289 287 291 290 298 294 294 296 297 296 294 299 296 296 294 294 293 294 294 294 294 296 295 295 294 294 295 296 299 299 301 304 302 302 303 306 304 300 297 299 299 302 305 308 309 309 307 305 302 304 303 303 298 292 296 299 299 300 300 295 299 312 315 315 315 315 315 318 321 321 321 323 324 326 326 328 332
293 290 300 303 305 302 297 290 292 291 289 291 294 293 295 293 293 295 294 296 293 295 294 294 294 293 295 294 294 294 295 294 295 293 295 295 295 296 298 299 299 304 306 302 305 303 308 303 297 298 301 303 304 305 305 305 304 304 305 306 304 301 302 301 300 304 298 299 296 297 294 300 308 320 319 317 322 318 322 321 324 322 323 325 326 327 329 332
293 293 296 303 305 302 293 284 285 287 289 292 291 290 294 293 293 292 292 294 292 292 291 292 294 295 293 296 295 293 295 291 294 294 292 296 294 299 298 298 299 301 302 300 299 302 298 301 300 296 295 297 299 303 303 303 303 302 302 304 305 305 305 304 305 306 298 299 299 297 292 299 309 320 317 316 314 314 316 317 320 320 324 325 325 327 330 335
294 297 297 299 302 299 289 290 288 287 288 288 288 287 289 290 293 293 293 292 294 293 292 292 293 295 294 296 294 296 295 293 292 294 294 294 294 298 298 298 300 301 304 304 306 305 301 300 299 293 290 288 288 290 293 296 299 302 303 303 304 303 303 301 298 300 294 302 302 298 297 306 310 315 314 316 316 318 319 319 318 320 323 323 326 327 332 333
291 284 291 293 297 296 294 296 293 289 288 287 286 287 290 288 291 294 294 293 294 293 294 294 295 295 293 293 292 292 292 295 292 291 293 292 294 296 297 298 298 301 305 305 306 305 300 302 301 298 297 296 297 298 298 300 300 299 300 302 302 303 304 304 303 300 295 303 300 301 304 304 305 308 313 314 316 316 318 322 320 320 321 323 327 329 330 334
294 287 287 285 292 294 291 293 291 291 287 290 284 287 286 288 289 290 295 289 295 292 293 293 292 290 290 291 291 290 292 291 294 293 291 292 294 295 298 298 298 302 304 302 304 303 300 296 298 299 298 297 297 297 299 299 296 299 299 300 303 302 302 302 299 299 311 300 295 303 310 303 304 309 314 319 320 321 321 323 323 324 324 324 325 331 328 327
287 291 292 294 286 284 286 288 291 290 291 291 287 288 287 287 287 285 290 293 293 295 290 291 291 291 290 289 290 288 291 290 292 290 292 293 293 295 295 298 297 300 301 298 302 300 296 294 297 296 295 296 297 298 299 299 299 299 300 300 301 303 303 300 301 307 306 299 297 307 312 306 307 307 310 317 322 322 318 322 324 322 318 324 328 325 326 327
294 294 293 297 287 289 289 290 291 290 289 290 290 289 286 286 285 288 287 288 290 290 292 285 287 289 290 291 291 288 290 286 287 292 291 292 291 292 292 294 297 299 298 297 298 301 298 295 298 295 294 295 297 298 299 298 298 298 298 299 300 301 301 302 302 303 304 305 306 306 313 307 307 308 310 312 321 319 321 324 318 319 317 325 324 327 322 324
290 289 289 294 292 290 291 291 290 289 287 290 286 287 287 286 286 288 290 287 285 288 292 287 288 290 290 290 290 288 290 291 290 287 292 291 292 293 293 293 293 297 297 294 296 299 295 293 297 294 294 294 296 298 299 298 297 296 298 299 300 301 302 303 303 303 304 302 303 303 309 309 311 317 314 316 325 318 316 314 315 320 321 319 322 324 328 328
297 300 297 290 287 289 292 290 289 288 286 288 286 287 288 287 287 289 288 292 289 287 288 286 289 289 291 291 290 290 293 292 292 292 293 293 289 295 292 293 296 292 294 294 296 296 295 292 296 295 291 292 296 296 296 297 297 298 298 299 300 301 300 302 302 304 303 303 304 302 302 304 312 314 314 316 315 315 316 320 321 322 320 322 324 325 329 333
301 304 300 294 285 291 287 290 290 288 284 288 288 288 287 287 290 290 287 292 292 292 291 290 290 290 289 289 289 291 293 294 294 296 296 297 297 297 297 296 296 293 293 293 296 293 295 294 292 292 289 290 295 296 295 296 296 294 296 299 301 302 303 304 305 307 306 306 303 301 302 309 312 316 314 314 314 316 317 318 320 321 328 322 324 326 328 330
Wind_Speed
21 21 22 21 22 22 22 22 22 21 23 22 21 21 21 22 21 21 21 22 22 21 22 21 20 20 19 19 18 17 16 10 10 4 4 18 6 12 10 10 20 14 18 16 18 19 16 16 17 16 12 9 6 7 8 6 4 6 5 4 7 7 6 2 4 3 4 4 6 11 13 10 10 8 6 7 5 5 10 5 7 4 4 6 12 18 18 19
22 22 21 22 22 23 23 23 23 22 23 22 22 21 22 22 23 22 23 22 22 21 20 19 20 19 19 17 17 16 14 8 10 11 20 6 13 16 13 16 20 21 18 18 21 19 19 17 17 18 12 8 7 6 10 5 8 8 5 6 7 4 3 3 3 5 6 4 5 10 10 10 11 14 9 8 7 10 10 5 7 8 10 13 16 20 21 21
22 21 23 23 23 23 23 23 23 24 23 23 23 22 22 21 21 21 22 23 22 21 19 18 19 18 17 16 15 13 10 5 6 13 15 12 20 14 16 16 22 22 21 17 19 20 20 20 17 17 11 7 8 7 11 6 9 9 6 8 9 5 5 6 8 10 10 8 7 10 8 5 8 9 10 8 9 10 13 10 9 11 12 15 18 21 21 20
24 23 23 23 22 24 24 24 24 24 24 24 24 23 22 22 21 21 22 22 22 21 21 20 17 16 16 15 12 11 6 7 6 5 1 3 5 18 17 17 21 23 15 17 17 17 17 18 18 16 11 6 7 7 11 8 8 7 9 9 3 5 8 6 6 7 10 5 6 9 7 7 10 8 10 9 9 10 10 14 17 18 18 19 21 21 22 21
24 24 23 22 23 25 25 25 25 25 25 24 24 24 24 23 24 24 21 21 22 22 22 18 17 15 14 11 9 5 3 5 3 1 2 4 3 13 21 19 22 20 15 13 15 16 19 19 17 13 10 8 8 8 11 11 10 4 12 9 5 0 4 4 9 8 4 2 6 8 11 8 8 6 10 14 11 10 14 16 14 13 20 22 24 22 22 23
25 24 25 25 25 25 26 26 26 26 25 24 25 26 27 29 26 24 25 24 23 21 19 18 15 13 12 9 7 4 2 4 2 2 1 3 5 11 21 23 24 16 15 19 16 17 20 17 17 12 9 8 12 11 8 12 11 9 10 12 10 11 12 9 8 6 6 2 6 9 7 8 13 8 10 14 16 1 2 5 12 12 19 21 21 22 22 24
25 25 25 26 26 27 27 28 27 26 25 25 24 25 25 25 26 26 25 23 20 18 17 16 14 11 9 10 3 2 5 10 8 5 2 3 4 15 19 21 20 16 19 18 17 17 18 19 16 14 11 8 10 11 6 12 12 12 9 4 8 10 16 14 13 11 9 6 8 8 8 11 13 10 11 14 16 3 3 9 13 13 13 18 21 21 24 24
26 26 26 25 27 27 27 27 27 26 25 25 26 27 25 26 25 24 25 23 22 19 17 14 11 7 6 4 2 3 2 12 11 4 3 9 11 20 22 17 16 18 19 21 22 20 21 21 17 13 10 12 6 13 6 7 13 14 13 11 10 10 12 12 12 11 11 11 10 7 10 14 16 11 11 16 15 4 5 10 15 16 15 16 18 20 19 19
27 27 27 27 27 28 28 29 28 26 25 24 24 24 25 26 25 27 25 24 21 20 16 12 9 4 2 2 2 4 11 8 3 3 7 10 15 19 21 14 14 20 18 18 21 20 21 16 15 15 9 13 7 13 11 7 8 14 15 10 9 11 11 10 12 12 11 8 7 10 15 15 14 5 12 14 12 7 10 12 15 17 17 17 17 19 19 19
27 27 27 27 28 28 29 29 28 28 27 27 27 27 29 28 26 25 25 23 22 18 15 11 8 9 4 3 3 6 5 0 3 2 6 13 16 17 15 18 19 15 15 16 14 18 17 15 18 12 5 9 6 6 9 14 3 5 11 14 14 14 14 12 14 14 12 11 10 14 15 14 10 9 10 10 12 11 12 14 14 17 18 17 15 15 16 18
27 27 28 28 29 29 30 29 28 28 28 29 29 28 28 27 26 25 24 22 19 16 12 10 11 10 7 4 7 11 1 1 3 5 10 14 17 17 15 13 17 16 16 15 16 20 14 17 14 7 2 5 10 10 9 7 9 12 10 11 13 12 13 13 13 15 8 9 14 15 14 7 9 10 14 8 13 14 14 15 16 15 17 16 17 15 14 14
27 28 28 29 28 29 30 28 29 29 29 29 29 28 27 27 27 25 22 19 15 10 9 11 15 8 4 4 9 11 2 5 5 6 8 13 12 8 2 12 15 15 16 16 17 18 14 17 15 12 6 9 7 4 11 14 11 10 10 11 10 8 11 9 11 11 10 9 10 13 6 6 11 13 11 11 13 15 14 15 16 16 15 15 16 15 14 14
27 28 28 28 29 30 28 29 29 30 29 29 29 27 26 26 26 23 20 14 6 5 10 13 14 8 6 5 13 11 1 4 3 6 5 3 6 1 4 4 1 4 11 19 18 16 9 15 18 17 6 9 6 5 3 2 7 6 8 8 10 8 10 8 7 5 10 6 6 10 6 9 15 15 10 14 15 15 14 14 15 13 14 14 15 14 14 14
27 27 28 28 29 28 28 28 30 30 29 30 29 26 25 25 23 18 8 6 4 5 13 17 10 7 4 8 4 2 9 8 4 7 7 4 5 5 6 8 4 2 4 5 3 6 6 11 18 13 3 5 5 4 6 1 1 6 3 2 6 5 5 5 3 5 9 6 12 13 8 7 10 15 11 15 18 19 16 16 16 14 14 14 14 14 15 16
26 27 27 28 28 27 27 28 29 28 30 30 29 26 23 21 17 9 4 7 9 12 17 14 6 6 4 9 6 8 10 3 6 14 9 10 9 4 8 11 11 5 2 1 6 6 4 8 7 5 7 1 2 4 4 4 1 1 4 9 5 7 5 4 3 10 9 3 11 13 9 8 4 11 14 15 17 19 16 16 17 15 15 15 14 15 15 15
24 24 27 29 29 29 28 28 27 29 29 29 26 26 21 15 10 6 6 9 14 18 13 7 4 3 4 9 2 9 7 7 10 11 5 11 12 9 12 10 9 3 3 4 4 7 4 9 11 7 5 4 8 7 6 4 8 3 7 5 4 4 6 6 5 2 5 3 9 14 7 2 2 7 14 15 18 19 16 16 17 17 18 16 15 14 14 14
23 25 27 29 29 29 30 28 28 31 29 29 28 22 15 11 5 9 10 10 9 6 2 0 5 3 4 2 1 4 6 6 1 4 8 10 11 10 14 12 8 8 6 5 7 9 7 8 2 1 4 6 5 7 6 9 9 7 4 8 4 7 4 5 2 3 2 4 6 14 10 9 2 3 12 14 18 17 15 17 18 17 16 16 15 15 15 15
27 25 28 29 30 30 29 28 29 28 30 30 24 21 11 6 3 4 6 4 2 1 2 1 3 2 12 7 6 3 2 2 3 3 5 7 10 14 14 8 7 13 11 7 2 6 5 7 5 8 4 9 8 10 12 13 11 8 6 7 6 6 8 9 4 3 7 2 4 9 14 12 6 5 11 15 17 18 17 17 19 18 17 16 15 15 17 16
29 27 28 30 30 29 31 29 28 28 28 28 19 12 2 1 2 2 1 2 2 2 3 5 6 7 1 1 2 5 3 1 2 6 5 11 7 8 7 8 16 17 11 10 5 9 4 2 4 6 13 13 15 15 13 1 4 7 9 9 5 6 8 9 3 1 4 10 7 6 9 9 11 6 8 11 14 16 14 12 12 14 15 16 15 16 16 17
30 29 28 29 29 29 30 29 25 27 27 17 12 5 2 1 2 3 3 5 7 11 7 3 11 7 11 9 5 6 4 2 4 3 6 6 12 12 10 10 11 9 11 11 9 11 8 10 12 16 13 12 11 14 11 2 2 5 9 9 10 10 12 7 5 4 5 8 9 3 6 8 9 6 11 14 14 12 11 13 13 15 15 16 16 17 18 18
27 28 30 29 28 29 29 28 25 26 22 11 11 3 6 6 6 6 13 17 15 12 16 17 16 16 13 4 2 8 6 1 1 2 7 8 11 16 10 11 12 10 10 11 11 6 10 13 17 13 7 8 9 9 10 9 6 7 6 8 8 9 11 3 3 1 2 6 11 9 13 15 11 8 10 13 14 16 16 16 16 17 17 16 19 19 19 17
27 25 26 27 27 28 29 28 25 23 14 8 5 8 7 9 4 7 5 12 7 15 15 19 13 17 15 19 12 5 5 5 10 9 3 12 13 15 10 14 14 12 9 10 8 7 12 18 10 10 5 6 9 11 13 15 14 11 10 8 8 10 7 7 9 7 7 6 12 10 11 10 9 6 8 14 17 17 20 20 21 21 19 16 16 18 17 15
29 26 26 28 27 27 31 29 27 17 6 7 5 7 6 6 8 6 5 9 18 9 11 15 14 21 17 11 10 6 12 14 11 7 11 11 13 13 14 12 14 10 11 14 14 11 10 15 11 10 10 10 10 12 13 14 13 12 11 11 14 8 5 6 5 2 2 4 6 7 11 11 7 4 9 14 16 15 17 18 16 15 18 20 21 20 18 19
29 29 27 26 27 28 30 30 18 7 8 7 1 8 4 5 7 8 3 6 11 6 13 11 16 11 13 9 10 17 17 8 10 12 11 14 13 6 12 16 14 12 15 18 20 15 13 5 13 13 14 15 14 12 14 12 12 15 15 14 13 10 9 8 2 5 3 6 4 8 11 11 7 8 6 9 12 11 13 14 13 12 13 13 9 10 14 17
28 29 27 27 26 27 31 24 3 9 10 2 4 3 5 7 6 6 3 6 6 10 4 8 7 8 6 6 12 15 12 3 13 5 10 17 12 11 12 8 9 14 15 17 14 12 13 3 8 18 16 16 16 12 16 14 13 12 17 17 14 7 6 4 2 5 6 8 6 5 7 10 3 5 5 4 9 13 11 14 16 14 13 13 14 15 14 16
29 28 27 26 25 27 29 6 4 10 10 3 6 9 7 8 5 5 3 3 7 4 2 2 7 0 9 6 10 8 10 11 14 9 10 12 11 7 8 8 9 17 17 15 13 9 10 9 12 14 17 18 18 16 15 16 12 10 10 15 9 7 10 9 8 3 7 8 1 4 8 12 2 5 5 6 9 13 11 14 15 15 15 15 16 15 15 17
28 28 26 26 24 24 9 4 6 10 6 6 13 13 9 8 6 5 3 3 5 4 5 3 3 2 4 7 11 13 6 5 6 14 13 12 18 6 14 11 6 1 6 5 2 11 9 13 11 13 14 16 16 16 13 17 12 11 6 12 10 12 13 11 8 9 10 8 9 7 10 11 14 12 7 8 10 11 13 15 16 16 17 18 17 17 17 17
29 27 26 27 25 18 5 5 9 7 4 11 13 11 11 7 5 2 3 5 4 4 2 3 0 2 1 7 13 11 4 3 5 11 18 13 12 6 12 15 16 16 13 12 19 5 18 14 18 15 15 13 16 15 13 19 14 5 8 9 12 12 12 10 10 11 9 7 12 8 10 9 13 6 5 8 7 10 14 15 17 18 18 19 20 19 19 18
28 28 26 24 25 17 3 2 5 6 10 12 11 11 7 5 3 3 3 4 1 3 1 4 4 3 4 5 10 10 5 2 3 4 12 8 15 4 14 15 13 12 16 22 17 6 9 17 20 18 13 14 11 9 14 18 15 5 4 6 8 8 7 9 8 8 4 5 15 11 10 9 14 9 4 6 9 11 14 15 17 18 20 20 20 20 19 18
28 27 27 22 17 2 1 3 6 9 10 10 12 11 8 3 3 4 3 8 4 2 4 2 2 5 3 8 7 10 8 4 3 3 14 10 15 3 3 6 9 11 12 13 15 3 2 1 11 11 15 13 10 11 13 17 13 6 9 7 7 5 5 3 3 4 3 13 15 10 9 9 14 10 10 9 9 11 8 8 11 15 17 18 19 20 19 18
25 25 25 21 6 6 6 5 7 8 12 11 12 12 4 2 4 4 8 4 6 4 2 4 3 2 3 4 3 6 10 10 5 9 11 6 13 7 8 8 4 7 6 10 15 10 2 5 9 6 10 9 11 8 7 14 12 11 8 9 5 3 2 4 3 4 10 14 4 11 11 12 12 9 11 12 9 12 12 14 13 15 18 18 18 18 20 19
23 25 27 15 7 4 3 10 14 11 10 13 12 5 3 5 2 9 6 4 5 4 4 5 1 5 5 2 4 3 5 5 8 10 12 12 15 16 17 15 15 12 13 14 13 9 13 9 4 3 10 16 13 12 8 11 12 14 10 11 11 6 4 9 6 10 14 10 1 5 12 10 21 10 2 10 13 12 13 13 13 15 17 18 19 21 19 19
24 24 26 11 5 4 7 10 8 9 12 12 7 3 4 5 9 9 7 5 2 7 3 3 7 12 8 5 2 4 3 5 8 11 11 10 12 14 13 13 16 11 10 15 9 11 10 8 8 8 5 13 14 15 10 10 13 16 14 13 13 11 10 11 10 4 5 2 4 1 5 13 6 8 12 13 13 14 15 15 15 14 15 17 18 19 19 19
25 22 10 11 10 8 8 8 7 9 12 9 4 3 3 6 6 3 9 4 5 9 6 6 15 10 5 3 3 5 4 2 6 7 13 10 11 13 12 8 14 9 2 8 14 13 10 9 17 14 11 14 17 15 13 10 13 15 11 12 13 9 8 11 7 10 7 3 4 3 7 8 6 4 11 19 19 17 16 15 14 15 14 15 17 18 20 19
25 16 10 10 3 5 7 6 6 9 9 6 3 4 9 10 3 4 3 8 6 9 11 16 10 5 3 2 3 4 5 2 4 2 11 10 13 11 13 12 8 9 4 9 7 6 21 9 4 23 9 18 17 15 12 13 12 12 13 12 10 16 4 6 1 5 4 3 4 8 8 2 4 2 4 5 7 10 10 11 11 13 12 10 9 13 16 18
16 10 8 4 5 5 5 7 10 10 5 4 3 5 10 2 2 5 4 9 7 9 14 15 3 4 2 1 1 6 3 4 5 2 7 10 1 7 7 1 5 4 8 14 6 10 5 13 7 10 12 16 18 15 12 16 11 10 10 15 14 6 10 6 1 1 1 1 10 5 7 7 4 9 11 9 8 11 10 12 12 13 13 10 11 13 16 18
10 10 7 6 6 6 8 10 9 6 3 3 3 7 4 6 1 6 7 11 11 11 9 6 2 3 4 2 3 7 6 6 2 2 6 4 4 8 6 4 4 8 8 4 4 2 8 5 6 12 10 15 15 18 15 20 6 10 11 12 8 6 9 8 8 3 6 9 5 6 14 8 4 10 4 12 12 12 11 13 14 14 12 11 12 13 15 18
11 10 8 5 5 9 11 12 7 3 3 3 6 8 3 6 5 11 10 13 11 7 6 4 4 4 1 4 1 8 9 4 5 4 4 3 3 6 3 5 4 6 9 5 4 4 4 6 6 11 15 11 6 15 12 12 14 13 10 13 10 8 11 7 5 12 10 11 7 7 9 12 11 11 2 7 12 11 11 12 13 13 13 14 13 14 15 15
7 5 5 7 11 14 14 11 1 2 2 3 3 4 1 6 9 10 12 11 6 7 6 4 5 2 5 4 5 4 7 3 6 3 2 2 2 7 8 6 4 10 7 4 5 2 4 10 3 8 12 11 11 14 14 12 6 6 8 13 6 4 8 10 12 1 5 9 3 6 5 12 10 12 11 7 8 11 12 10 13 15 15 14 13 13 14 14
8 5 3 9 11 15 16 6 2 1 1 1 4 4 7 10 9 12 11 12 6 6 3 6 4 7 6 3 6 4 4 5 4 4 2 5 4 5 11 7 7 12 10 6 5 3 3 2 8 4 3 13 11 11 14 15 15 10 10 11 6 7 2 7 2 10 7 7 8 7 9 5 4 10 15 17 12 11 12 11 10 12 14 15 13 12 11 14
6 3 5 7 16 14 12 1 6 6 3 3 3 7 8 7 10 9 12 11 7 6 9 7 8 5 5 7 4 4 3 4 3 2 3 4 5 3 10 10 10 9 9 0 3 6 3 7 11 6 7 10 6 12 16 18 18 16 15 14 14 13 8 10 10 4 7 7 4 5 13 3 3 2 8 11 13 11 10 12 11 13 13 12 12 13 11 10
8 7 6 15 18 14 8 6 5 4 3 6 7 8 7 9 8 10 11 8 8 5 4 6 5 4 3 2 3 3 4 3 3 1 6 3 7 6 8 11 10 10 5 3 2 5 4 3 2 9 8 7 5 15 17 16 19 19 16 14 16 14 11 9 8 10 7 10 1 4 8 9 5 7 8 9 9 12 12 10 11 11 12 13 12 14 12 9
7 6 15 14 13 11 5 5 6 5 4 5 9 7 7 6 7 9 9 9 9 8 5 3 4 5 1 3 2 2 5 3 6 3 4 4 6 6 8 12 13 9 3 6 1 4 2 2 6 5 4 1 3 1 5 5 2 8 13 13 14 16 16 14 12 5 10 6 7 7 12 5 1 3 8 9 6 6 4 4 9 10 8 9 10 10 11 8
7 8 6 7 13 10 6 8 7 7 7 10 10 9 6 5 7 10 7 12 7 7 7 6 7 5 5 5 3 3 6 2 5 4 4 4 3 6 12 11 14 8 9 5 5 7 2 1 3 6 5 4 6 7 8 4 4 9 10 12 12 15 18 17 5 3 10 13 14 10 16 4 3 0 1 3 4 6 9 8 6 8 8 8 8 8 8 6
7 4 5 6 7 8 9 6 6 6 8 11 12 9 10 6 7 8 7 9 9 9 7 6 7 8 5 6 2 4 7 6 2 5 5 5 4 7 9 12 10 8 8 8 10 4 2 2 3 12 15 14 15 16 15 12 8 1 3 9 14 18 18 15 12 5 10 12 16 13 14 4 4 0 2 5 4 6 9 9 5 7 8 8 6 4 4 6
6 6 6 6 5 4 6 4 6 7 8 11 12 6 8 8 9 7 8 6 10 13 7 7 10 7 10 9 4 4 5 6 4 4 4 4 5 4 9 10 7 9 11 12 13 4 1 0 2 4 3 4 2 4 3 4 2 6 3 2 6 15 19 17 9 9 13 5 12 16 10 6 4 6 4 5 5 7 10 8 7 8 8 7 6 6 5 5
4 4 7 8 7 2 8 3 9 9 8 10 6 6 10 10 9 7 8 3 8 10 9 7 12 10 10 9 6 4 5 4 4 5 7 5 5 5 9 6 4 11 13 9 14 4 1 1 5 4 5 4 5 6 6 5 4 5 8 6 4 6 13 19 17 11 9 6 14 12 8 13 14 4 5 6 7 7 7 7 7 8 7 5 3 4 5 7
3 4 6 4 3 6 11 7 11 11 12 9 5 3 8 10 10 8 9 2 8 5 7 3 12 12 11 9 9 2 4 3 4 4 5 6 6 7 6 6 4 11 11 8 9 4 3 1 4 5 4 6 7 8 5 3 5 6 8 9 11 6 7 15 17 10 14 15 16 6 10 11 11 11 9 7 7 7 8 8 7 6 3 3 4 5 7 8
2 5 4 4 4 6 8 10 12 10 11 9 4 5 10 11 11 8 6 7 6 5 9 5 10 12 12 11 8 4 7 1 2 4 6 7 8 6 5 3 3 10 11 9 7 4 3 1 3 5 8 6 6 7 4 2 2 6 8 11 12 12 12 8 11 14 14 14 12 14 9 14 12 12 12 13 7 8 8 5 5 8 6 3 5 5 7 7
3 4 4 5 5 8 8 7 7 8 8 8 5 7 9 11 12 12 8 4 5 4 7 8 11 10 10 9 8 5 5 6 7 4 5 9 6 3 3 2 5 7 9 7 5 6 5 1 6 7 7 5 6 5 3 4 7 9 9 10 12 12 12 12 11 12 13 15 17 17 9 10 6 5 9 7 3 3 3 9 11 8 6 5 5 6 4 5
3 2 3 5 7 6 6 7 7 8 8 5 5 9 9 10 11 13 12 8 7 4 8 10 10 10 7 8 7 6 6 8 8 7 9 7 5 3 5 0 5 7 7 6 3 6 4 2 2 3 6 5 2 6 9 11 11 11 11 11 11 12 13 12 11 9 10 9 9 14 15 10 1 6 9 7 4 6 8 9 9 8 7 3 5 7 8 8
2 2 2 3 3 5 7 6 8 7 5 5 7 11 8 11 11 12 10 1 5 1 7 9 10 8 7 6 7 8 11 12 11 10 9 8 9 11 9 10 8 6 4 4 5 4 2 3 3 2 4 6 5 6 10 14 10 10 14 12 13 16 15 11 12 10 12 8 12 13 8 0 7 8 10 10 11 11 12 10 9 11 8 6 8 8 8 8
Wind_Direction
354 352 351 349 347 346 345 342 340 339 337 336 333 331 329 326 324 321 320 319 320 320 320 321 322 322 322 324 325 327 327 328 309 290 200 242 133 168 169 121 166 185 144 133 130 139 152 157 162 162 164 170 173 182 172 198 168 182 218 227 244 245 259 252 271 260 341 279 156 175 176 157 149 163 141 130 111 121 147 158 129 81 73 115 121 138 148 152
353 352 351 348 346 345 344 342 339 337 335 333 331 329 327 325 322 320 320 318 317 318 318 318 320 319 320 321 325 325 329 302 288 267 235 170 144 177 160 149 160 165 146 139 150 155 153 166 163 162 160 176 154 179 164 189 183 190 204 220 250 198 236 249 276 285 296 348 185 180 182 180 169 161 159 175 155 148 159 169 156 116 105 113 133 141 152 157
352 350 349 347 345 343 342 340 338 335 334 332 329 326 324 319 317 315 315 315 313 312 311 315 316 315 317 320 321 326 328 303 263 254 264 235 219 195 171 155 164 163 159 157 162 159 162 163 158 160 168 159 175 172 185 184 189 209 223 228 237 237 268 267 280 292 287 287 196 185 183 211 151 165 156 193 161 171 182 169 171 161 146 142 149 151 155 162
351 349 348 346 343 342 340 338 336 334 332 330 327 324 318 315 312 313 315 313 310 308 311 311 312 315 314 317 321 325 298 265 262 252 56 256 174 192 179 160 168 169 160 156 162 157 151 152 158 164 159 184 172 174 184 187 193 187 220 231 237 240 247 254 273 323 319 267 202 182 161 185 169 165 172 155 154 204 212 190 180 176 161 153 157 158 160 165
350 349 346 345 343 340 338 336 334 333 331 329 325 320 315 313 316 315 311 307 306 307 307 307 308 310 312 308 326 340 294 295 283 37 185 291 231 168 175 166 166 168 160 147 148 147 151 153 159 168 169 172 173 181 213 194 211 189 227 234 232 221 273 281 311 320 4 91 166 171 179 194 151 171 191 168 190 209 210 202 195 174 155 157 162 163 165 168
350 348 346 344 342 340 337 335 334 331 330 326 323 319 318 318 316 313 311 310 306 303 301 303 304 306 307 314 309 278 264 268 66 19 255 246 262 168 167 164 164 154 139 148 152 154 149 155 157 167 185 178 183 190 193 206 194 238 233 239 240 257 274 282 290 297 335 152 173 191 189 137 175 196 195 189 206 111 49 199 182 172 166 160 158 159 166 170
349 347 345 343 341 338 336 334 332 330 327 325 320 317 314 314 314 311 308 304 299 292 293 295 297 298 305 305 278 266 240 291 309 171 353 161 163 149 153 157 153 150 150 147 151 154 161 160 170 173 174 190 199 202 178 195 202 235 252 224 233 237 248 260 269 278 278 236 213 206 159 183 184 211 191 208 216 55 69 164 160 149 157 156 160 170 169 171
347 345 344 342 340 338 335 333 330 326 324 322 319 316 313 311 305 304 303 297 293 290 289 289 285 289 291 288 185 223 164 242 259 353 334 112 127 139 146 151 154 155 156 159 158 164 161 166 178 162 182 183 182 198 186 199 208 226 245 250 264 264 259 261 261 257 252 250 257 174 195 206 191 199 159 219 210 171 123 146 140 145 157 169 167 170 170 171
345 344 343 341 339 338 335 332 329 325 321 318 315 312 308 305 304 306 299 296 290 289 282 272 264 272 207 226 236 281 242 256 338 326 131 120 138 143 140 145 167 163 163 160 167 161 161 178 171 171 191 186 158 193 201 199 219 224 241 256 257 253 261 261 264 260 252 253 226 205 221 216 200 139 212 219 192 146 137 143 147 149 160 172 177 173 172 174
344 343 342 340 339 337 335 331 327 323 319 318 315 315 316 312 307 302 299 293 291 285 272 256 235 207 198 202 174 246 285 266 333 257 148 138 141 148 157 151 162 163 151 163 166 163 175 172 177 168 117 186 173 188 194 210 213 174 228 238 250 260 268 267 264 267 254 242 219 224 228 219 181 178 238 203 168 141 147 151 154 157 167 175 178 181 179 176
344 343 341 340 339 337 334 330 325 321 319 318 315 315 314 311 308 304 300 295 291 279 258 228 202 179 176 238 198 235 198 79 51 117 147 141 146 158 164 160 162 158 157 158 172 175 179 166 166 142 169 207 187 220 218 209 242 266 276 278 269 267 262 261 256 256 252 251 221 220 238 207 170 205 235 149 156 157 154 156 161 166 169 175 179 182 184 184
344 342 341 339 339 336 333 329 323 320 319 316 315 315 314 314 311 307 302 293 290 269 229 207 184 178 172 193 221 218 56 79 89 86 130 148 155 151 78 171 169 159 152 164 178 187 176 169 162 171 174 137 186 160 230 231 237 251 264 273 279 285 281 250 242 242 213 243 200 211 221 184 177 223 216 138 152 164 159 161 167 172 171 173 179 184 187 186
343 342 341 340 338 336 332 326 322 320 317 315 315 316 315 315 312 309 301 296 294 240 191 177 167 180 170 232 240 234 167 154 59 54 96 90 120 64 152 229 241 172 166 166 179 191 176 166 173 187 161 177 151 201 55 196 208 239 232 253 284 281 278 274 224 237 204 231 174 156 228 215 208 211 172 150 159 161 160 167 173 174 173 176 181 184 185 188
343 342 341 339 337 333 329 324 319 317 315 315 315 315 316 316 311 313 354 49 94 149 159 157 158 169 211 244 259 177 233 245 278 310 227 165 152 172 142 181 214 179 4 347 47 136 144 177 180 185 84 201 161 24 229 190 234 235 257 261 255 278 250 109 92 151 192 178 164 185 250 261 197 202 170 163 161 167 173 175 176 176 177 178 182 186 188 191
344 342 341 339 336 332 326 321 318 315 316 315 314 315 317 314 306 353 36 94 101 121 140 143 163 156 207 269 266 259 188 93 231 229 196 179 176 132 177 169 193 196 32 90 142 142 119 160 164 181 201 198 299 278 266 259 194 258 252 229 196 228 223 145 230 192 244 139 188 188 248 274 157 190 172 170 171 171 176 177 176 177 180 180 183 189 191 193
342 341 340 338 336 333 326 321 319 317 318 316 315 314 313 303 308 53 75 94 111 120 132 130 190 262 312 274 206 99 135 182 229 228 165 192 179 195 166 168 164 121 189 71 136 150 150 157 189 201 201 173 218 226 245 272 241 207 238 258 222 190 261 333 98 255 259 117 185 194 254 276 217 188 171 175 175 179 175 177 178 179 181 181 184 189 192 192
343 340 340 339 336 333 327 322 320 322 321 318 318 310 314 289 259 88 95 104 115 134 223 81 160 220 248 117 103 227 215 208 24 121 178 198 185 137 130 129 163 167 144 99 117 131 147 184 101 176 249 230 186 195 218 234 228 216 190 245 249 250 270 249 120 95 41 171 181 217 248 264 6 168 173 180 181 182 182 179 179 179 181 185 185 189 192 195
343 342 340 339 337 333 327 322 323 323 323 319 320 307 305 296 348 107 115 92 92 211 157 118 186 235 251 255 261 186 32 233 182 144 158 185 160 146 142 152 135 156 148 125 143 151 161 187 169 221 173 206 192 199 202 219 211 199 194 228 233 237 244 264 256 94 324 273 261 218 233 257 264 147 183 188 188 186 191 183 181 180 182 184 189 191 194 196
342 341 340 339 335 332 329 322 326 327 325 317 308 300 276 209 262 310 273 166 201 156 212 180 180 198 338 250 321 308 216 163 106 161 145 147 167 151 103 108 145 143 163 171 172 176 175 153 193 205 214 199 203 204 207 122 123 205 206 228 246 246 235 236 240 305 338 312 283 232 252 256 258 173 191 196 199 200 198 186 181 183 183 185 189 194 195 199
341 340 339 338 334 331 327 324 327 330 328 326 341 346 212 347 224 183 199 234 228 230 292 133 230 305 320 276 270 285 266 171 235 202 142 156 147 161 135 138 148 166 152 189 139 198 156 197 202 211 213 203 197 203 208 188 199 176 202 224 239 247 260 263 276 286 308 294 272 268 278 281 281 234 200 197 192 203 197 188 189 189 187 189 192 196 199 199
341 340 340 337 333 331 326 327 329 331 327 315 309 16 41 357 347 329 329 282 249 247 245 249 216 232 237 53 27 32 18 312 207 178 177 163 160 152 172 149 158 175 193 155 150 135 186 220 221 213 194 175 187 190 203 213 221 179 181 206 225 224 251 250 288 66 304 306 283 283 290 284 281 256 209 191 189 200 199 195 196 195 194 193 194 196 200 199
341 339 339 337 333 332 327 327 331 329 313 302 351 68 88 50 4 303 307 305 282 214 222 234 233 244 245 255 255 359 344 300 277 230 179 167 166 174 170 183 172 190 148 145 124 155 202 223 214 189 135 169 177 193 199 209 219 225 227 218 246 240 251 284 277 264 251 245 275 300 289 286 289 274 208 189 195 204 203 198 197 193 195 197 197 198 194 187
341 339 339 337 333 331 329 325 330 321 343 12 32 73 61 359 342 316 282 276 276 214 231 225 225 236 242 237 238 178 235 226 235 212 180 186 164 214 152 186 183 162 158 178 188 177 213 230 205 161 167 181 188 189 196 208 220 224 220 222 229 231 219 238 115 118 167 217 302 309 296 289 279 239 221 203 202 207 208 209 207 200 196 196 197 193 189 191
341 340 337 335 333 333 326 327 312 306 1 347 117 77 50 356 348 331 271 258 304 272 207 219 206 225 216 176 194 175 200 224 184 241 162 176 177 152 160 187 174 169 190 191 202 199 202 51 170 163 180 193 198 187 192 201 215 220 222 226 231 215 225 242 297 335 313 240 241 288 287 280 248 245 203 210 209 216 213 210 212 209 213 216 212 199 198 196
340 339 336 332 334 334 325 321 31 344 321 261 131 86 19 356 349 3 298 282 227 266 208 246 179 240 220 123 146 180 210 246 216 208 160 177 163 144 202 162 172 200 196 189 203 218 225 161 158 174 184 194 200 195 202 200 220 217 223 225 231 212 213 204 243 281 274 271 223 263 294 271 194 232 232 159 195 217 211 210 214 212 211 207 207 209 203 203
340 338 335 330 335 338 317 313 40 344 320 114 11 346 354 343 340 325 261 284 287 268 148 231 159 247 143 146 156 167 122 231 210 209 167 189 176 179 114 188 192 201 192 175 200 225 221 136 169 189 185 191 202 212 201 200 220 221 225 206 214 193 217 219 226 248 264 258 61 197 247 273 155 244 187 191 203 215 210 216 218 213 214 212 212 210 204 200
340 337 331 331 336 342 353 15 338 325 356 327 330 327 329 325 322 265 244 236 266 183 139 46 241 146 234 156 163 147 182 246 135 176 187 183 181 194 176 178 176 342 133 119 63 224 169 163 175 182 197 196 199 214 188 189 214 233 129 162 178 206 213 223 227 239 264 283 272 208 257 276 280 261 182 183 204 210 215 214 216 215 212 211 212 213 210 203
338 335 330 330 333 339 271 294 326 336 316 297 308 317 310 316 292 226 245 316 270 136 91 171 42 117 280 171 177 198 21 86 153 200 192 174 179 174 219 184 188 178 157 160 209 122 168 171 184 181 193 201 211 208 161 186 210 210 150 160 188 202 220 224 235 250 254 271 266 237 188 243 251 253 113 170 213 213 227 216 215 215 214 211 213 213 209 206
336 333 328 328 329 316 284 251 297 281 311 311 301 306 311 301 258 237 275 264 129 77 356 101 312 128 55 137 205 250 331 316 334 80 178 164 202 148 201 197 187 167 172 184 207 128 188 185 189 186 181 208 202 181 166 186 210 183 84 167 174 182 183 207 223 233 221 220 250 239 177 248 264 248 198 164 228 226 223 217 218 214 211 209 210 211 210 206
333 331 324 332 327 322 261 252 231 250 286 303 306 300 297 237 189 214 170 238 346 133 353 126 176 326 120 155 215 256 258 270 8 115 169 183 182 229 317 130 162 157 187 213 235 125 102 180 180 180 199 206 179 198 175 188 199 122 144 142 140 138 149 127 195 208 243 244 246 236 196 220 276 239 211 172 209 214 220 223 222 218 215 213 212 209 207 204
332 328 320 331 323 324 302 301 326 323 315 311 312 294 231 213 228 199 222 210 358 38 271 37 65 256 62 237 245 201 244 257 318 154 161 183 172 201 139 127 128 179 190 203 226 215 200 140 176 206 182 202 171 175 187 186 176 168 191 193 173 186 171 212 190 192 237 252 233 204 219 201 245 258 193 204 193 199 207 225 213 210 210 209 208 209 208 204
332 327 318 326 279 291 300 318 318 316 311 311 313 315 227 204 237 211 222 30 257 23 20 337 345 356 326 351 246 229 191 164 177 174 173 185 174 184 188 185 166 179 201 196 212 188 218 200 170 175 202 190 178 200 178 187 180 201 198 199 204 201 178 230 196 222 227 241 123 188 192 211 230 244 88 185 210 205 213 223 219 210 210 207 207 207 206 204
330 325 313 304 279 269 248 254 288 302 305 313 311 288 231 210 231 219 262 327 129 15 7 301 318 319 302 286 174 290 268 231 158 189 186 189 192 198 195 203 180 187 201 185 186 176 222 208 191 200 176 198 179 196 165 182 190 199 199 190 191 200 198 224 211 258 286 180 171 109 153 250 284 268 216 230 208 210 211 217 221 215 205 199 203 203 203 203
327 321 314 303 300 262 263 277 288 304 319 323 301 280 201 231 241 40 243 351 342 344 317 338 320 299 236 253 42 333 170 52 184 180 183 181 196 192 196 208 186 191 40 146 201 189 198 204 222 184 210 167 196 204 178 178 176 203 199 188 204 205 199 210 208 212 226 269 124 126 157 239 183 250 182 207 208 205 208 210 212 217 210 199 200 197 199 202
321 302 300 298 303 263 251 272 286 320 316 300 296 246 213 226 347 347 27 350 351 333 329 323 302 300 268 156 9 35 356 131 56 151 193 179 195 198 191 194 201 201 132 175 196 185 213 228 147 187 192 159 191 198 170 156 180 193 186 197 212 216 138 238 145 225 241 218 176 182 217 56 219 7 301 268 248 227 223 225 218 222 223 209 193 195 199 203
321 326 314 282 321 298 299 321 326 328 300 297 291 230 230 325 280 28 12 357 340 341 323 312 243 266 278 260 72 359 72 351 29 284 182 195 74 191 7 55 180 224 205 211 142 198 165 226 123 180 173 174 190 172 170 158 197 171 174 204 214 158 183 223 332 15 84 326 247 173 263 251 279 262 244 234 224 235 229 228 228 231 228 206 197 198 201 204
332 321 345 322 301 292 315 324 322 313 259 267 258 253 284 295 9 360 4 349 333 319 316 331 22 343 2 321 347 358 342 323 39 302 162 120 104 16 350 350 1 20 19 324 168 280 185 190 139 143 194 201 195 173 171 187 142 130 200 201 124 131 212 217 235 148 224 245 236 179 236 241 210 276 157 203 200 215 219 224 227 230 230 215 212 203 203 205
323 315 291 254 287 320 330 325 314 213 224 235 238 253 330 283 336 345 353 342 336 330 301 313 299 347 359 345 359 351 343 294 14 341 102 355 119 349 331 320 319 32 339 321 263 159 205 229 175 185 188 173 120 169 172 194 151 187 203 144 162 164 192 182 207 231 219 230 251 220 232 248 223 231 153 185 203 210 217 217 221 225 228 230 224 213 209 206
304 300 324 360 347 338 334 332 322 195 186 240 257 283 351 317 326 334 342 335 285 304 301 283 293 64 349 334 337 321 359 5 343 12 208 46 137 36 36 331 297 337 326 309 210 210 186 222 155 201 200 140 170 179 196 178 214 21 124 168 185 190 196 165 200 353 199 239 244 242 159 257 199 229 214 224 213 219 217 216 221 224 222 219 220 217 204 194
346 341 310 349 330 345 328 325 229 85 320 321 335 301 335 320 323 330 332 344 328 324 285 307 320 307 313 318 351 329 355 331 342 7 7 21 102 56 25 359 338 318 332 281 254 357 198 190 234 117 95 147 191 191 196 181 184 188 190 189 163 214 26 194 164 211 200 222 230 269 269 254 193 195 199 215 215 218 225 224 221 226 229 228 225 219 200 194
324 273 273 317 337 340 322 285 23 18 21 339 349 329 337 329 325 316 335 330 325 261 273 288 305 298 320 311 295 14 311 330 332 8 34 73 8 143 26 357 326 334 327 129 123 12 215 184 210 149 177 201 184 178 202 196 194 195 192 197 184 183 168 183 211 188 224 210 224 200 251 164 128 142 202 210 216 220 218 218 225 231 232 231 231 234 226 201
344 339 341 336 322 339 340 42 25 13 1 3 345 326 313 325 321 337 334 338 343 338 322 304 297 293 331 283 348 16 331 352 353 81 33 77 40 42 349 338 337 316 342 53 40 38 346 28 207 202 208 197 171 192 212 212 202 202 193 198 192 197 187 192 215 194 194 225 4 257 300 280 144 156 200 208 210 220 227 214 230 233 233 234 231 233 234 221
349 296 294 299 311 328 311 51 16 10 358 357 334 315 299 329 341 339 331 352 337 342 321 303 329 318 75 354 334 315 5 55 9 68 80 83 72 23 341 348 338 359 -0 38 272 33 295 195 172 234 25 177 253 314 281 292 308 238 219 209 191 200 196 209 218 154 194 170 202 219 248 246 119 176 194 202 220 242 273 245 236 240 237 235 239 239 239 226
319 311 310 324 324 325 33 33 359 347 346 338 346 324 341 352 358 348 349 338 346 348 336 321 331 351 318 349 20 20 353 189 49 49 73 35 83 13 348 352 350 24 11 41 341 356 239 170 241 176 192 227 229 225 220 97 208 224 216 210 208 205 204 213 192 85 219 203 202 201 239 204 135 202 285 277 265 258 250 243 234 258 261 251 241 235 240 234
307 274 254 303 341 5 44 28 5 344 347 345 330 337 356 357 359 347 337 328 357 345 328 346 340 342 4 329 54 53 43 6 114 59 64 44 32 359 342 350 350 18 9 -0 355 326 264 41 214 197 202 194 200 204 210 201 194 199 271 227 206 208 207 208 208 167 224 202 202 217 232 99 98 286 223 242 255 274 268 262 246 240 250 255 260 258 235 229
3 340 336 330 6 2 57 26 18 357 347 354 335 341 350 348 350 345 358 324 14 334 349 354 6 345 17 355 44 34 25 33 28 62 42 47 11 353 336 331 356 10 1 359 355 337 18 260 342 350 300 238 24 7 8 343 314 217 168 258 226 217 216 213 212 199 215 120 213 227 241 276 227 189 180 223 232 242 258 258 242 246 254 247 241 255 255 239
311 335 347 340 329 82 2 14 4 358 349 342 321 330 334 356 350 346 2 331 5 342 323 33 20 24 4 359 5 9 11 11 40 65 37 40 8 337 325 338 12 18 0 3 354 335 18 119 45 34 43 9 333 312 324 332 283 284 285 277 274 240 223 216 215 220 112 171 236 222 207 239 238 179 198 221 219 234 253 273 284 269 245 236 236 230 247 253
342 354 337 32 317 333 339 348 349 333 326 335 319 315 328 347 358 1 342 358 347 352 341 356 17 7 358 354 334 326 7 42 44 20 11 29 358 356 358 20 51 10 6 16 355 21 1 25 68 355 350 336 307 301 317 288 261 262 266 269 269 275 262 236 231 199 175 215 235 181 183 223 246 229 220 226 229 232 236 240 260 317 321 209 191 217 228 237
305 312 302 4 316 328 310 304 314 320 319 331 311 335 340 344 346 3 350 314 331 17 27 13 3 351 337 343 356 338 15 319 55 32 23 358 359 344 1 6 94 19 6 5 14 14 306 42 23 353 325 318 315 313 326 300 301 281 266 269 268 267 263 258 255 245 224 236 242 243 185 220 225 230 225 235 236 253 284 353 311 270 253 190 215 220 233 235
341 338 322 330 302 305 307 313 311 321 324 336 328 4 344 337 336 344 346 307 318 353 14 12 352 347 332 332 346 -0 16 24 14 353 1 356 333 1 348 359 329 1 5 1 347 18 332 55 11 346 319 313 317 318 290 318 312 289 281 264 260 258 260 249 247 248 253 252 252 258 246 237 223 264 250 244 280 3 296 261 256 254 252 248 249 247 234 237
289 245 279 300 315 320 320 326 325 332 318 335 345 348 334 340 334 342 324 298 269 321 4 343 338 331 331 324 332 338 2 346 325 303 306 302 280 3 338 52 13 336 358 354 12 337 336 305 23 345 321 300 345 338 326 324 310 279 267 261 250 239 245 240 235 229 231 235 242 253 254 251 265 259 263 256 221 231 244 243 248 252 251 235 274 274 266 264
264 228 232 290 296 320 314 321 314 320 316 349 333 331 327 321 326 336 334 72 128 147 328 324 327 320 314 330 324 336 332 317 303 292 286 277 268 277 270 277 290 289 316 306 320 305 299 304 301 336 294 276 305 336 333 319 306 275 246 242 244 250 251 255 256 235 232 231 228 233 251 284 242 219 245 250 245 232 231 241 255 257 241 235 237 247 256 255